WetterOnline ( http://www.wetteronline.de )

Wetter aktuell Göttingen

Aktuelles Wetter: Göttingen (171m)

6-stündlich | Neueste Meldungen
Ortszeit Temperatur Wetter
So, 21.10. 2:00 5.0° C bedeckt
Sa, 20.10. 20:00 5.0° C leicht bewölkt
Sa, 20.10. 14:00 13.1° C wolkenlos
Sa, 20.10. 8:00 0.3° C fast wolkenlos
Sa, 20.10. 2:00 4.9° C bewölkt
Fr, 19.10. 20:00 11.1° C bedeckt
Fr, 19.10. 14:00 14.5° C bewölkt
Fr, 19.10. 8:00 8.9° C bedeckt
Ortszeit Temperatur Wetter
So, 21.10. 3:30 5.6° C bewölkt
So, 21.10. 3:20 5.6° C bewölkt
So, 21.10. 3:10 5.6° C bedeckt
So, 21.10. 3:00 5.2° C bewölkt
So, 21.10. 2:50 5.2° C bewölkt
So, 21.10. 2:40 5.5° C bewölkt
So, 21.10. 2:30 5.3° C bedeckt
So, 21.10. 2:00 5.0° C bedeckt
So, 21.10. 1:30 5.1° C bedeckt
So, 21.10. 1:00 6.0° C bedeckt
So, 21.10. 0:30 3.8° C bedeckt
Ortszeit Relative Feuchte Sichtweite
So, 21.10. 2:00 93% 20 km
Sa, 20.10. 20:00 86% 40 km
Sa, 20.10. 14:00 56% 25 km
Sa, 20.10. 8:00 98% 13 km
Sa, 20.10. 2:00 91% 30 km
Fr, 19.10. 20:00 76% 65 km
Fr, 19.10. 14:00 64% 45 km
Fr, 19.10. 8:00 95% 8 km
Ortszeit Relative Feuchte Sichtweite
So, 21.10. 3:30 91% 16 km
So, 21.10. 3:20 91% -
So, 21.10. 3:10 90% -
So, 21.10. 3:00 92% 17 km
So, 21.10. 2:50 92% -
So, 21.10. 2:40 91% -
So, 21.10. 2:30 92% 15 km
So, 21.10. 2:00 93% 20 km
So, 21.10. 1:30 93% 22 km
So, 21.10. 1:00 91% 27 km
So, 21.10. 0:30 96% 17 km
Ortszeit Niederschlagsmenge Niederschlagsart
So, 21.10. 2:00 0.0 l/m2 in 6 Std. -
Sa, 20.10. 20:00 0.0 l/m2 in 12 Std. -
Sa, 20.10. 14:00 0.0 l/m2 in 6 Std. -
Sa, 20.10. 8:00 0.0 l/m2 in 12 Std. -
Sa, 20.10. 2:00 0.0 l/m2 in 6 Std. -
Fr, 19.10. 20:00 0.0 l/m2 in 12 Std. -
Fr, 19.10. 14:00 0.0 l/m2 in 6 Std. -
Fr, 19.10. 8:00 0.0 l/m2 in 12 Std. -
Ortszeit Niederschlagsmenge Niederschlagsart
So, 21.10. 3:30 0.0 l/m2 in 1 Std. -
So, 21.10. 3:20 keine Meldung -
So, 21.10. 3:10 keine Meldung -
So, 21.10. 3:00 0.0 l/m2 in 1 Std. -
So, 21.10. 2:50 keine Meldung -
So, 21.10. 2:40 keine Meldung -
So, 21.10. 2:30 0.0 l/m2 in 1 Std. -
So, 21.10. 2:00 0.0 l/m2 in 1 Std. -
So, 21.10. 1:30 0.0 l/m2 in 1 Std. -
So, 21.10. 1:00 0.0 l/m2 in 1 Std. -
So, 21.10. 0:30 0.0 l/m2 in 1 Std. -
Ortszeit Stärke Spitze Richtung
km/h Bft. km/h Grad Sektor
So, 21.10. 2:00 4 1 11 170° S
Sa, 20.10. 20:00 4 1 25 150° SO
Sa, 20.10. 14:00 11 2 25 270° W
Sa, 20.10. 8:00 2 1 9 110° O
Sa, 20.10. 2:00 4 1 14 130° SO
Fr, 19.10. 20:00 2 1 19 20° N
Fr, 19.10. 14:00 11 2 22 140° SO
Fr, 19.10. 8:00 4 1 7 100° O
Ortszeit Stärke Spitze Richtung
km/h Bft. km/h Grad Sektor
So, 21.10. 3:30 2 1 4 320° NW
So, 21.10. 3:20 2 1 - 320° NW
So, 21.10. 3:10 4 1 - 330° NW
So, 21.10. 3:00 4 1 4 340° N
So, 21.10. 2:50 4 1 - 340° N
So, 21.10. 2:40 2 1 - 30° NO
So, 21.10. 2:30 0 0 4 - -
So, 21.10. 2:00 4 1 7 170° S
So, 21.10. 1:30 4 1 7 260° W
So, 21.10. 1:00 7 2 9 100° O
So, 21.10. 0:30 4 1 7 90° O
Ortszeit Untergrenze Bedeckung Gattung
total tief tief mittel hoch
So, 21.10. 2:00 1410 m 8/8 8/8 - - -
Sa, 20.10. 20:00 10500 m 3/8 0/8 - - -
Sa, 20.10. 14:00 - 0/8 0/8 - - -
Sa, 20.10. 8:00 9000 m 1/8 0/8 - - -
Sa, 20.10. 2:00 1410 m 7/8 7/8 - - -
Fr, 19.10. 20:00 1440 m 8/8 8/8 - - -
Fr, 19.10. 14:00 1500 m 7/8 7/8 - - -
Fr, 19.10. 8:00 450 m 8/8 8/8 - - -
Ortszeit Bedeckungsgrad in Achtel und Wolkenuntergrenze
So, 21.10. 3:30 6(600m) 7(720m) 7(1380m)
So, 21.10. 3:20 6(600m) 7(720m) 7(1380m)
So, 21.10. 3:10 5(600m) 8(1380m) 8(4800m)
So, 21.10. 3:00 7(1380m) 8(4800m) 8(4800m)
So, 21.10. 2:50 7(1380m) 8(4800m)
So, 21.10. 2:40 7(1350m) 8(4800m)
So, 21.10. 2:30 8(1350m)
So, 21.10. 2:00 8(1410m)
So, 21.10. 1:30 8(1440m)
So, 21.10. 1:00 1(900m) 8(1440m)
So, 21.10. 0:30 8(1410m) 8(6900m)
Ortszeit Luftdruck NN (hPa) Tendenz (hPa in 3 Std.)
So, 21.10. 2:00 1031 - 0,7
Sa, 20.10. 20:00 1031 + 1,2
Sa, 20.10. 14:00 1030 - 0,7
Sa, 20.10. 8:00 1030 + 1,3
Sa, 20.10. 2:00 1027 + 0,4
Fr, 19.10. 20:00 1025 + 0,9
Fr, 19.10. 14:00 1025 - 0,9
Fr, 19.10. 8:00 1025 + 0,4
Ortszeit Luftdruck NN (hPa) Tendenz (hPa in 3 Std.)
So, 21.10. 3:30 1031 - 0,4
So, 21.10. 3:20 1031 keine Meldung
So, 21.10. 3:10 1031 keine Meldung
So, 21.10. 3:00 1031 - 0,6
So, 21.10. 2:50 1031 keine Meldung
So, 21.10. 2:40 1031 keine Meldung
So, 21.10. 2:30 1031 - 0,7
So, 21.10. 2:00 1031 - 0,7
So, 21.10. 1:30 1031 - 0,3
So, 21.10. 1:00 1031 - 0,5
So, 21.10. 0:30 1032 + 0,1
Ortszeit Schneehöhe (cm)
So, 21.10. 2:00 0
Sa, 20.10. 20:00 0
Sa, 20.10. 14:00 0
Sa, 20.10. 8:00 0
Sa, 20.10. 2:00 0
Fr, 19.10. 20:00 0
Fr, 19.10. 14:00 0
Fr, 19.10. 8:00 0
Ortszeit Schneehöhe (cm)
So, 21.10. 3:30 0
So, 21.10. 3:20 0
So, 21.10. 3:10 0
So, 21.10. 3:00 0
So, 21.10. 2:50 0
So, 21.10. 2:40 0
So, 21.10. 2:30 0
So, 21.10. 2:00 0
So, 21.10. 1:30 0
So, 21.10. 1:00 0
So, 21.10. 0:30 0
Link zu dieser Seite / Seite empfehlen

Das Wetter in ...